, AK

(GMT )
Cape Lisburne

Weather History for PALU - January, 2014

Change the Weather History Date:

Saturday, January 18, 2014

  Actual Average Record
Temperature  
Mean Temperature -12 °F -  
Max Temperature -5 °F 0 °F 21 °F (2012)
Min Temperature -18 °F -8 °F -22 °F (1998)
Degree Days  
Heating Degree Days 76    
Moisture  
Dew Point -17 °F    
Average Humidity 80    
Maximum Humidity 84    
Minimum Humidity 76    
Precipitation  
Precipitation 0.00 in - - ()
Sea Level Pressure  
Sea Level Pressure 29.52 in    
Wind  
Wind Speed 32 mph (East)    
Max Wind Speed 39 mph    
Max Gust Speed 50 mph    
Visibility 1 miles    
Events Snow    
Averages and records for this station are not official NWS values.
T = Trace of Precipitation, MM = Missing Value Source: NWS Daily Summary

Daily Weather History Graph

Daily Weather History Graph

Search for Another Location

Airport or City:

Trip Planner

Search our weather history database for the weather conditions in past years. The results will help you decide how hot, cold, wet, or windy it might be!

Date:

Astronomy

Jan. 18, 2014 Rise Set
Actual Time 12:42 PM AKST 3:47 PM AKST
Civil Twilight 10:58 AM AKST 5:32 PM AKST
Nautical Twilight 9:36 AM AKST 6:54 PM AKST
Astronomical Twilight 8:26 AM AKST 8:04 PM AKST
Moon 9:13 PM AKST (1/18) 11:28 AM AKST (1/18)
Length of Visible Light 6h 33m
Length of Day
3h 05m
Waning Gibbous, 94% of the Moon is Illuminated
Jan 18
Waning Gibbous
Jan 23
Last Quarter
Jan 30
New
Feb 6
First Quarter
Feb 14
Full

Hourly Weather History & Observations

Time (AKST) Temp. Windchill Dew Point Humidity Pressure Visibility Wind Dir Wind Speed Gust Speed Precip Events Conditions
12:11 AM -16.6 °F -51.2 °F -22.0 °F 76% 29.66 in 0.8 mi East 38.0 mph 49.5 mph N/A Snow Light Snow
12:51 AM -16.6 °F -51.6 °F -22.0 °F 76% 29.64 in 0.5 mi East 39.1 mph 49.5 mph N/A Snow Snow
12:55 AM -16.6 °F -49.2 °F -21.6 °F 78% 29.64 in 0.8 mi East 32.2 mph 49.5 mph N/A Snow Snow
1:11 AM -16.6 °F -50.1 °F -22.0 °F 76% 29.64 in 0.5 mi East 34.5 mph 42.6 mph N/A Snow Snow
1:55 AM -17.3 °F -51.5 °F -22.2 °F 79% 29.62 in 0.5 mi East 35.7 mph 47.2 mph N/A Snow Heavy Snow
2:55 AM -17.1 °F -51.2 °F -21.8 °F 79% 29.60 in 0.5 mi East 35.7 mph 44.9 mph N/A Snow Snow
3:51 AM -18.4 °F -53.3 °F -22.0 °F 84% 29.57 in 0.8 mi East 36.8 mph 47.2 mph N/A Snow Light Snow
3:55 AM -17.9 °F -52.6 °F -22.9 °F 78% 29.58 in 0.8 mi East 36.8 mph 44.9 mph N/A Snow Light Snow
4:11 AM -18.4 °F -51.7 °F -22.0 °F 84% 29.58 in 0.8 mi East 32.2 mph 44.9 mph N/A Snow Light Snow
4:55 AM -17.5 °F -52.5 °F -22.5 °F 78% 29.55 in 0.8 mi East 38.0 mph 48.3 mph N/A Snow Light Snow
5:51 AM -16.6 °F -49.7 °F -22.0 °F 76% 29.53 in 0.8 mi East 33.4 mph 43.7 mph N/A Snow Light Snow
5:55 AM -17.0 °F -49.7 °F -21.6 °F 79% 29.53 in 0.8 mi East 32.2 mph 41.4 mph N/A Snow Light Snow
6:11 AM -16.6 °F -49.7 °F -22.0 °F 76% 29.53 in 0.5 mi East 33.4 mph 39.1 mph N/A Snow Light Snow
6:31 AM -16.6 °F -47.4 °F -20.2 °F 84% 29.53 in 0.8 mi East 27.6 mph 38.0 mph N/A Snow Light Snow
6:51 AM -16.6 °F -49.7 °F -20.2 °F 84% 29.51 in 0.5 mi East 33.4 mph 40.3 mph N/A Snow Snow
6:55 AM -16.4 °F -46.7 °F -21.1 °F 79% 29.52 in 0.5 mi East 26.5 mph 40.3 mph N/A Snow Snow
7:11 AM -16.6 °F -50.1 °F -20.2 °F 84% 29.51 in 0.5 mi East 34.5 mph 44.9 mph N/A Snow Snow
7:31 AM -16.6 °F -49.7 °F -20.2 °F 84% 29.50 in 0.5 mi East 33.4 mph 38.0 mph N/A Snow Heavy Snow
7:51 AM -16.6 °F -50.5 °F -20.2 °F 84% 29.49 in 0.5 mi East 35.7 mph 42.6 mph N/A Snow Snow
7:55 AM -16.1 °F -48.5 °F -20.6 °F 80% 29.49 in 0.5 mi East 32.2 mph 42.6 mph N/A Snow Snow
8:11 AM -16.6 °F -49.7 °F -20.2 °F 84% 29.49 in 0.8 mi East 33.4 mph 41.4 mph N/A Snow Snow
8:51 AM -14.8 °F -46.4 °F -20.2 °F 77% 29.50 in 1.0 mi East 31.1 mph 42.6 mph N/A Snow Light Snow
8:55 AM -15.2 °F -47.7 °F -20.0 °F 79% 29.49 in 0.8 mi East 33.4 mph 41.4 mph N/A Snow Light Snow
9:11 AM -14.8 °F -46.8 °F -20.2 °F 77% 29.49 in 0.8 mi East 32.2 mph 41.4 mph N/A Snow Snow
9:51 AM -14.8 °F -47.6 °F -20.2 °F 77% 29.49 in 1.0 mi East 34.5 mph 42.6 mph N/A Snow Light Snow
9:55 AM -14.8 °F -47.6 °F -20.2 °F 77% 29.49 in 1.0 mi East 34.5 mph 42.6 mph N/A Snow Light Snow
10:31 AM -14.8 °F -47.6 °F -20.2 °F 77% 29.49 in 1.2 mi East 34.5 mph 40.3 mph N/A Snow Light Snow
10:51 AM -14.8 °F -46.8 °F -18.4 °F 84% 29.49 in 0.8 mi East 32.2 mph 41.4 mph N/A Snow Snow
10:55 AM -13.9 °F -46.7 °F -18.9 °F 78% 29.49 in 0.8 mi East 35.7 mph 42.6 mph N/A Snow Snow
11:31 AM -13.0 °F -45.1 °F -18.4 °F 77% 29.49 in 1.0 mi East 34.5 mph 41.4 mph N/A Snow Light Snow
11:51 AM -13.0 °F -44.3 °F -18.4 °F 77% 29.49 in 0.5 mi East 32.2 mph 40.3 mph N/A Snow Light Snow
11:55 AM -13.2 °F -44.2 °F -18.4 °F 77% 29.50 in 0.5 mi East 31.1 mph 40.3 mph N/A Snow Light Snow
12:11 PM -13.0 °F -44.3 °F -18.4 °F 77% 29.50 in 0.8 mi East 32.2 mph 39.1 mph N/A Snow Light Snow
12:31 PM -13.0 °F -44.7 °F -18.4 °F 77% 29.50 in 0.8 mi East 33.4 mph 41.4 mph N/A Snow Light Snow
12:51 PM -13.0 °F -45.5 °F -18.4 °F 77% 29.49 in 0.5 mi East 35.7 mph 43.7 mph N/A Snow Light Snow
12:55 PM -12.6 °F -43.0 °F -17.9 °F 78% 29.50 in 0.2 mi East 29.9 mph 43.7 mph N/A Snow Snow
1:11 PM -13.0 °F -43.9 °F -16.6 °F 84% 29.50 in 0.5 mi East 31.1 mph 40.3 mph N/A Snow Snow
1:31 PM -11.2 °F -41.5 °F -16.6 °F 77% 29.49 in 0.2 mi East 31.1 mph 41.4 mph N/A Snow Snow
1:51 PM -11.2 °F -40.6 °F -16.6 °F 77% 29.49 in 0.5 mi East 28.8 mph 36.8 mph N/A Snow Snow
1:55 PM -11.7 °F -41.3 °F -16.4 °F 80% 29.49 in 0.2 mi East 28.8 mph 35.7 mph N/A Snow Snow
2:11 PM -11.2 °F -40.6 °F -16.6 °F 77% 29.49 in 0.5 mi East 28.8 mph 39.1 mph N/A Snow Snow
2:31 PM -11.2 °F -39.2 °F -14.8 °F 84% 29.49 in 0.8 mi East 25.3 mph 34.5 mph N/A Snow Light Snow
2:55 PM -11.2 °F -39.2 °F -15.5 °F 81% 29.49 in 0.8 mi East 25.3 mph 36.8 mph N/A Snow Light Snow
3:31 PM -11.2 °F -37.6 °F -14.8 °F 84% 29.50 in 0.8 mi East 21.9 mph 31.1 mph N/A Snow Light Snow
3:55 PM -10.7 °F -38.5 °F -15.2 °F 80% 29.50 in 0.8 mi East 25.3 mph 32.2 mph N/A Snow Light Snow
4:11 PM -9.4 °F -37.3 °F -14.8 °F 77% 29.50 in 1.0 mi East 26.5 mph 32.2 mph N/A Snow Light Snow
4:31 PM -9.4 °F -37.7 °F -14.8 °F 77% 29.50 in 0.5 mi East 27.6 mph 35.7 mph N/A Snow Light Snow
4:51 PM -9.4 °F -37.7 °F -14.8 °F 77% 29.51 in 0.8 mi East 27.6 mph 35.7 mph N/A Snow Light Snow
4:55 PM -9.9 °F -37.5 °F -14.4 °F 81% 29.51 in 0.8 mi East 25.3 mph 35.7 mph N/A Snow Light Snow
5:11 PM -9.4 °F -36.3 °F -14.8 °F 77% 29.51 in 1.0 mi East 24.2 mph 33.4 mph N/A Snow Light Snow
5:31 PM -9.4 °F -36.3 °F -13.0 °F 84% 29.51 in 2.0 mi East 24.2 mph 31.1 mph N/A Snow Light Snow
5:51 PM -9.4 °F -36.8 °F -13.0 °F 84% 29.51 in 1.2 mi East 25.3 mph - N/A Snow Light Snow
5:55 PM -9.2 °F -37.5 °F -13.4 °F 82% 29.51 in 1.2 mi East 27.6 mph 32.2 mph N/A Snow Light Snow
6:55 PM -8.5 °F -36.5 °F -12.8 °F 81% 29.52 in 1.2 mi East 27.6 mph 40.3 mph N/A Snow Light Snow
7:51 PM -7.6 °F -34.4 °F -11.2 °F 84% 29.52 in 2.0 mi East 25.3 mph 31.1 mph N/A Snow Light Snow
7:55 PM -8.0 °F -34.9 °F -12.3 °F 81% 29.52 in 2.0 mi East 25.3 mph 32.2 mph N/A Snow Light Snow
8:11 PM -7.6 °F -32.3 °F -13.0 °F 77% 29.52 in 2.5 mi East 20.7 mph 31.1 mph N/A Snow Light Snow
8:55 PM -7.1 °F -32.1 °F -11.2 °F 82% 29.52 in 2.5 mi East 21.9 mph 31.1 mph N/A Snow Light Snow
9:31 PM -7.6 °F -33.4 °F -11.2 °F 84% 29.53 in 5.0 mi East 23.0 mph 32.2 mph N/A Snow Light Snow
9:51 PM -7.6 °F -33.9 °F -11.2 °F 84% 29.54 in 6.0 mi East 24.2 mph - N/A Snow Light Snow
9:55 PM -6.9 °F -33.9 °F -11.9 °F 79% 29.53 in 5.0 mi East 26.5 mph 32.2 mph N/A Snow Light Snow
10:55 PM -6.5 °F -32.4 °F -11.6 °F 79% 29.56 in 5.0 mi East 24.2 mph 27.6 mph N/A Snow Light Snow
11:31 PM -5.8 °F -31.0 °F -11.2 °F 77% 29.57 in 3.0 mi East 23.0 mph 26.5 mph N/A Snow Light Snow
11:52 PM -5.8 °F -29.9 °F -11.2 °F 77% 29.58 in 3.0 mi East 20.7 mph - N/A Snow Light Snow
11:55 PM -6.3 °F -30.1 °F -11.0 °F 80% 29.58 in 3.0 mi East 19.6 mph - N/A Snow Light Snow